Skip Page Navigation
NASA JPL Caltech
NASA Logo - Jet Propulsion Laboratory + View the NASA Portal
+ Center for Near-Earth Object Studies
JPL Home Earth Solar System Stars & Galaxies Technology
JPL Solar System Dynamics
BODIES ORBITS EPHEMERIDES TOOLS PHYSICAL DATA DISCOVERY FAQ SITE MAP
JPL Small-Body Database Browser
Search: [ help ]  
214937 (2007 VG213)
Classification: Main-belt Asteroid          SPK-ID: 2214937
Ephemeris | Orbit Diagram | Orbital Elements | Mission Design | Physical Parameters | Discovery Circumstances ]

[ show orbit diagram ]
Orbital Elements at Epoch 2459000.5 (2020-May-31.0) TDB
Reference: JPL 13 (heliocentric ecliptic J2000)
 Element Value Uncertainty (1-sigma)   Units 
e .06603675989643656 4.5824e-08  
a 2.613332902202292 2.194e-08 au
q 2.440756864810101 1.189e-07 au
i 3.634188531814775 4.9171e-06 deg
node 123.3824648449366 8.7175e-05 deg
peri 2.409156675449284 0.00010006 deg
M 284.1800853874265 5.1843e-05 deg
tp 2459325.490990553889
(2021-Apr-20.99099055)
0.00022463 TDB
period 1543.087422311579
4.22
1.9432e-05
5.32e-08
d
yr
n .2332985123167631 2.9379e-09 deg/d
Q 2.785908939594482 2.3389e-08 au
  Orbit Determination Parameters
   # obs. used (total)      404  
   data-arc span      21916 days (60.00 yr)  
   first obs. used      1960-09-24  
   last obs. used      2020-09-25  
   planetary ephem.      DE431  
   SB-pert. ephem.      SB431-N16  
   condition code      0  
   norm. resid. RMS      .57511  
   source      ORB  
   producer      Otto Matic  
   solution date      2020-Nov-12 03:45:03  

Additional Information
 Earth MOID = 1.45606 au 
 Jupiter MOID = 2.23918 au 
 T_jup = 3.403 
[ show covariance matrix ]

Ephemeris | Orbit Diagram | Orbital Elements | Mission Design | Physical Parameters | Discovery Circumstances ]

Physical Parameter Table
Parameter Symbol Value Units Sigma Reference Notes
absolute magnitude H 16.1   n/a MPO450014  

214937 (2007 VG213)          Discovered 2007-Nov-09 by Spacewatch at Kitt Peak
Reference: 20090509/Numbers.arcLast Updated: 2009-05-11

Alternate Designations
 2007 VG213 = 2003 YJ103 
Ephemeris | Orbit Diagram | Orbital Elements | Mission Design | Physical Parameters | Discovery Circumstances ]
ABOUT SSD CREDITS/AWARDS PRIVACY/COPYRIGHT GLOSSARY LINKS
FirstGov 2020-Nov-28 16:17 UT
(server date/time)  
NASA Home Page
Site Manager:   Ryan S. Park
Webmaster  Alan B. Chamberlin